Home   Weather   Viersen   Past weeks

Flag for Germany Past Weather in Viersen, North Rhine-Westphalia, Germany — Yesterday and Last 2 Weeks

Now
55 °F

Clear.


Feels Like: 53 °F
Forecast: 47 / 54 °F
Wind: 10 mph from Southeast

Location: Duesseldorf

Current Time: May 1, 2017 at 4:43:39 am

Latest Report: May 1, 2017 at 4:20 am


Visibility: 10 mi

Pressure: 29.68 "Hg

Humidity: 47%

Dew Point: 36 °F

Location of ViersenLocation

Past Weather in Viersen — Graph

°F

Viersen Temperature Yesterday

Maximum temperature yesterday: 66 °F (at 4:20 pm)
Minimum temperature yesterday: 32 °F (at 5:50 am)
Average temperature yesterday: 53 °F

High & Low Weather Summary for the Past Weeks

 TemperatureHumidityPressure
High66 °F (Apr 30, 4:20 pm)100% (Apr 26, 5:20 am)30.63 "Hg (Apr 26, 5:20 am)
Low27 °F (Apr 20, 4:50 am)30% (Apr 20, 5:20 pm)29.68 "Hg (Apr 30, 7:20 pm)
Average45 °F66%30.13 "Hg
* Reported Apr 16 3:20 am — May 1 3:20 am, Viersen, Weather by CustomWeather, © 2017

Note: Actual official high and low records may vary slightly from our data, if they occured in-between our weather recording intervals... More about our weather records

Advertising

Viersen Weather History for the Previous 24 Hours

Scroll right to see more
 ConditionsComfort  
Time TempWeatherWind HumidityBarometerVisibility
3:20 am
Mon, May 1
57 °FPassing clouds.7 mph44%29.68 "HgN/A
2:20 am57 °FPassing clouds.9 mph44%29.68 "HgN/A
1:50 am57 °FClear.9 mph44%29.68 "Hg10 mi
1:20 am57 °FClear.12 mph44%29.68 "Hg10 mi
12:50 am57 °FClear.12 mph44%29.68 "Hg10 mi
12:20 am55 °FClear.8 mph47%29.68 "Hg10 mi
11:50 pm
Sun, Apr 30
55 °FClear.9 mph47%29.68 "Hg10 mi
11:20 pm55 °FClear.9 mph47%29.68 "Hg10 mi
10:50 pm57 °FClear.10 mph44%29.71 "Hg10 mi
10:20 pm57 °FClear.8 mph41%29.71 "Hg10 mi
9:50 pm59 °FPassing clouds.10 mph39%29.71 "HgN/A
9:20 pm59 °FPassing clouds.9 mph39%29.71 "HgN/A
8:50 pm59 °FSunny.10 mph39%29.71 "Hg10 mi
8:20 pm63 °FPassing clouds.13 mph34%29.71 "HgN/A
7:50 pm64 °FPassing clouds.18 mph30%29.71 "HgN/A
7:20 pm64 °FPassing clouds.17 mph30%29.68 "HgN/A
6:50 pm64 °FPassing clouds.18 mph30%29.71 "HgN/A
6:20 pm64 °FPassing clouds.15 mph34%29.71 "HgN/A
5:50 pm64 °FSunny.20 mph32%29.74 "Hg10 mi
5:20 pm66 °FSunny.21 mph30%29.74 "Hg10 mi
4:50 pm66 °FPassing clouds.17 mph30%29.74 "HgN/A
4:20 pm66 °FSunny.16 mph30%29.77 "Hg10 mi
3:50 pm64 °FPassing clouds.18 mph32%29.77 "HgN/A
3:20 pm64 °FSunny.17 mph34%29.80 "Hg10 mi
2:50 pm64 °FPassing clouds.17 mph34%29.80 "HgN/A
2:20 pm61 °FPassing clouds.21 mph36%29.83 "HgN/A
1:50 pm63 °FSunny.17 mph34%29.83 "Hg10 mi
1:20 pm61 °FSunny.21 mph34%29.83 "Hg10 mi
12:50 pm63 °FSunny.17 mph32%29.86 "Hg10 mi
12:20 pm61 °FPassing clouds.17 mph34%29.86 "HgN/A
11:50 am61 °FSunny.21 mph36%29.89 "Hg10 mi
11:20 am61 °FSunny.20 mph36%29.89 "Hg10 mi
10:50 am59 °FPassing clouds.17 mph39%29.89 "HgN/A
10:20 am57 °FSunny.14 mph44%29.92 "Hg10 mi
9:50 am55 °FSunny.15 mph44%29.92 "Hg10 mi
9:20 am54 °FPassing clouds.14 mph47%29.92 "HgN/A
8:50 am52 °FSunny.10 mph47%29.95 "Hg10 mi
8:20 am50 °FSunny.7 mph50%29.95 "Hg10 mi
7:50 am43 °FPassing clouds.3 mph66%29.95 "HgN/A
7:20 am39 °FSunny.2 mph75%29.95 "Hg10 mi
6:50 am34 °FSunny.2 mph87%29.95 "Hg10 mi
6:20 am32 °FSunny.1 mph93%29.98 "Hg10 mi
5:50 am32 °FClear.1 mph93%29.98 "Hg10 mi
5:20 am34 °FClear.2 mph87%29.98 "Hg10 mi
4:50 am34 °FClear.1 mph87%29.98 "Hg10 mi
4:20 am34 °FClear.2 mph87%29.98 "Hg10 mi
Weather by CustomWeather, © 2017

See weather overviewHow to use our weather pages